UAL122 KEWR-EGLL

Flight info

Callsign UAL122
Flight time 4h 36m
Altitude 39000
Route MERIT DCT HFD DCT PUT DCT BOS DCT TUSKY N265B NICSO/M085F400 DCT 48N050W 50N040W 52N030W 54N020W DCT DOGAL DCT BEXET/N0489F410 DCT ENJEX DCT AVZAC DCT INFEC DCT JETZI DCT AMFUL DCT ORZEB/N0435F230 P2 SIRIC
Aircraft B789/H-SDE1E2E3FGHIJ2J3J4J5M1RWXY/LB1D1

Departure

Time 2026-05-05 13:52
Airport Newark Liberty International Airport (KEWR)

Arrival

Time 2026-05-05 18:29
Airport London Heathrow Airport (EGLL)
Time Latitude Longitude Altitude Speed Heading
2026-05-05 13:35 40.69879 -74.17782 27 ft 0 kts 270°
2026-05-05 13:42 40.69879 -74.17753 27 ft 4 kts 270°
2026-05-05 13:43 40.69879 -74.17725 27 ft 4 kts 264°
2026-05-05 13:43 40.69884 -74.17691 27 ft 4 kts 255°
2026-05-05 13:43 40.69885 -74.17666 27 ft 4 kts 329°
2026-05-05 13:43 40.69868 -74.17668 27 ft 4 kts 40°
2026-05-05 13:44 40.69847 -74.17691 27 ft 3 kts 40°
2026-05-05 13:44 40.69844 -74.17694 27 ft 0 kts 40°
2026-05-05 13:46 40.69855 -74.17682 27 ft 4 kts 40°
2026-05-05 13:46 40.69884 -74.17649 27 ft 7 kts 40°
2026-05-05 13:46 40.69904 -74.17574 27 ft 11 kts 84°
2026-05-05 13:47 40.69948 -74.17497 27 ft 13 kts 43°
2026-05-05 13:47 40.70014 -74.17408 27 ft 14 kts 46°
2026-05-05 13:47 40.70090 -74.17356 28 ft 10 kts 25°
2026-05-05 13:47 40.70111 -74.17314 28 ft 7 kts 77°
2026-05-05 13:48 40.70114 -74.17206 28 ft 15 kts 94°
2026-05-05 13:48 40.70105 -74.17065 27 ft 16 kts 95°
2026-05-05 13:48 40.70095 -74.16917 27 ft 17 kts 95°
2026-05-05 13:48 40.70085 -74.16764 27 ft 15 kts 95°
2026-05-05 13:49 40.70076 -74.16633 27 ft 13 kts 95°
2026-05-05 13:49 40.70070 -74.16517 26 ft 7 kts 81°
2026-05-05 13:49 40.70127 -74.16473 26 ft 15 kts
2026-05-05 13:49 40.70246 -74.16459 27 ft 13 kts 14°
2026-05-05 13:50 40.70277 -74.16390 27 ft 11 kts 87°
2026-05-05 13:50 40.70272 -74.16287 27 ft 12 kts 94°
2026-05-05 13:50 40.70245 -74.16244 27 ft 5 kts 171°
2026-05-05 13:50 40.70178 -74.16270 26 ft 12 kts 204°
2026-05-05 13:51 40.70106 -74.16313 25 ft 1 kts 206°
2026-05-05 13:51 40.70103 -74.16315 25 ft 3 kts 206°
2026-05-05 13:51 40.69965 -74.16403 24 ft 49 kts 206°
2026-05-05 13:52 40.69477 -74.16714 29 ft 105 kts 206°
2026-05-05 13:52 40.68661 -74.17233 29 ft 154 kts 206°
2026-05-05 13:52 40.67661 -74.17887 503 ft 155 kts 210°
2026-05-05 13:52 40.66710 -74.18515 993 ft 157 kts 206°
2026-05-05 13:53 40.65671 -74.19160 1306 ft 171 kts 205°
2026-05-05 13:53 40.64574 -74.19840 1761 ft 177 kts 205°
2026-05-05 13:53 40.63467 -74.20697 2156 ft 194 kts 219°
2026-05-05 13:53 40.62579 -74.22110 2573 ft 209 kts 239°
2026-05-05 13:54 40.62074 -74.23965 2984 ft 224 kts 259°
2026-05-05 13:54 40.62403 -74.26029 3280 ft 244 kts 298°
2026-05-05 13:54 40.63701 -74.27475 3829 ft 252 kts 335°
2026-05-05 13:54 40.65436 -74.27653 4457 ft 256 kts 11°
2026-05-05 13:55 40.66962 -74.26485 5065 ft 259 kts 45°
2026-05-05 13:55 40.67992 -74.24547 5769 ft 258 kts 59°
2026-05-05 13:55 40.68976 -74.22557 6389 ft 261 kts 54°
2026-05-05 13:55 40.70136 -74.20680 6862 ft 272 kts 49°
2026-05-05 13:56 40.71439 -74.18789 7390 ft 283 kts 48°
2026-05-05 13:56 40.72747 -74.16814 8120 ft 287 kts 50°
2026-05-05 13:56 40.74038 -74.14785 8840 ft 291 kts 50°
2026-05-05 13:56 40.75348 -74.12733 9538 ft 294 kts 50°
2026-05-05 13:57 40.76687 -74.10662 10214 ft 298 kts 49°
2026-05-05 13:57 40.78064 -74.08536 10618 ft 313 kts 50°
2026-05-05 13:57 40.79506 -74.06298 10942 ft 328 kts 50°
2026-05-05 13:57 40.81019 -74.03942 11254 ft 344 kts 50°
2026-05-05 13:58 40.82602 -74.01479 11539 ft 359 kts 50°
2026-05-05 13:58 40.84244 -73.98927 11951 ft 368 kts 50°
2026-05-05 13:58 40.85909 -73.96332 12529 ft 373 kts 50°
2026-05-05 13:58 40.87593 -73.93707 13087 ft 377 kts 50°
2026-05-05 13:59 40.91014 -73.88367 14140 ft 384 kts 50°
2026-05-05 13:59 40.92749 -73.85656 14645 ft 388 kts 50°
2026-05-05 14:00 40.96263 -73.80155 15619 ft 395 kts 50°
2026-05-05 14:00 40.97464 -73.78273 15929 ft 397 kts 50°
2026-05-05 14:00 40.99836 -73.74554 16512 ft 402 kts 50°
2026-05-05 14:00 41.01644 -73.71715 16934 ft 405 kts 50°
2026-05-05 14:01 41.03466 -73.68851 17344 ft 408 kts 50°
2026-05-05 14:01 41.05301 -73.65965 17733 ft 411 kts 50°
2026-05-05 14:01 41.07144 -73.63062 18108 ft 414 kts 50°
2026-05-05 14:01 41.09001 -73.60135 18470 ft 416 kts 50°
2026-05-05 14:02 41.10873 -73.57182 18825 ft 419 kts 50°
2026-05-05 14:02 41.12752 -73.54215 19165 ft 422 kts 50°
2026-05-05 14:02 41.14642 -73.51227 19489 ft 424 kts 50°
2026-05-05 14:02 41.16544 -73.48217 19802 ft 427 kts 50°
2026-05-05 14:03 41.18456 -73.45189 20103 ft 429 kts 50°
2026-05-05 14:03 41.20296 -73.42272 20383 ft 431 kts 50°
2026-05-05 14:03 41.22223 -73.39214 20665 ft 434 kts 50°
2026-05-05 14:03 41.24164 -73.36131 20944 ft 436 kts 50°
2026-05-05 14:04 41.26105 -73.33043 21203 ft 438 kts 50°
2026-05-05 14:04 41.28064 -73.29924 21458 ft 440 kts 50°
2026-05-05 14:04 41.30030 -73.26792 21698 ft 442 kts 50°
2026-05-05 14:04 41.32006 -73.23641 21942 ft 444 kts 50°
2026-05-05 14:05 41.33991 -73.20471 22182 ft 446 kts 50°
2026-05-05 14:05 41.35980 -73.17291 22410 ft 448 kts 50°
2026-05-05 14:05 41.37967 -73.14079 22621 ft 449 kts 52°
2026-05-05 14:05 41.39666 -73.10573 22768 ft 451 kts 59°
2026-05-05 14:06 41.41229 -73.06943 22989 ft 453 kts 60°
2026-05-05 14:06 41.42790 -73.03294 23192 ft 454 kts 60°
2026-05-05 14:06 41.44409 -72.99662 23389 ft 456 kts 59°
2026-05-05 14:06 41.46044 -72.96033 23579 ft 458 kts 59°
2026-05-05 14:07 41.47659 -72.92366 23763 ft 459 kts 60°
2026-05-05 14:07 41.49263 -72.88677 23942 ft 461 kts 60°
2026-05-05 14:07 41.50884 -72.84983 24116 ft 462 kts 59°
2026-05-05 14:07 41.52520 -72.81282 24285 ft 464 kts 59°
2026-05-05 14:08 41.54153 -72.77568 24447 ft 465 kts 60°
2026-05-05 14:08 41.55785 -72.73829 24608 ft 466 kts 60°
2026-05-05 14:08 41.57419 -72.70084 24758 ft 468 kts 60°
2026-05-05 14:08 41.59064 -72.66324 24906 ft 469 kts 60°
2026-05-05 14:09 41.60711 -72.62556 25051 ft 470 kts 60°
2026-05-05 14:09 41.62359 -72.58774 25189 ft 472 kts 60°
2026-05-05 14:09 41.64008 -72.54981 25324 ft 473 kts 60°
2026-05-05 14:09 41.65676 -72.51193 25450 ft 474 kts 59°
2026-05-05 14:10 41.67405 -72.47427 25577 ft 475 kts 58°
2026-05-05 14:10 41.69137 -72.43658 25698 ft 476 kts 59°
2026-05-05 14:10 41.70839 -72.39856 25818 ft 477 kts 59°
2026-05-05 14:10 41.72538 -72.36031 25935 ft 478 kts 59°
2026-05-05 14:11 41.74254 -72.32212 26045 ft 479 kts 59°
2026-05-05 14:11 41.75982 -72.28389 26155 ft 480 kts 59°
2026-05-05 14:11 41.77703 -72.24552 26263 ft 481 kts 59°
2026-05-05 14:11 41.79422 -72.20693 26366 ft 482 kts 59°
2026-05-05 14:12 41.81121 -72.16884 26466 ft 483 kts 59°
2026-05-05 14:12 41.82849 -72.13019 26567 ft 484 kts 59°
2026-05-05 14:12 41.84580 -72.09143 26661 ft 485 kts 59°
2026-05-05 14:12 41.86309 -72.05254 26753 ft 486 kts 59°
2026-05-05 14:13 41.88039 -72.01358 26843 ft 487 kts 59°
2026-05-05 14:13 41.89770 -71.97460 26931 ft 487 kts 59°
2026-05-05 14:13 41.90945 -71.94811 26990 ft 488 kts 59°
2026-05-05 14:13 41.93242 -71.89626 27103 ft 489 kts 59°
2026-05-05 14:14 41.94418 -71.86968 27157 ft 489 kts 59°
2026-05-05 14:14 41.96189 -71.83061 27210 ft 490 kts 57°
2026-05-05 14:14 41.98048 -71.79226 27259 ft 491 kts 57°
2026-05-05 14:14 41.99874 -71.75340 27346 ft 491 kts 58°
2026-05-05 14:15 42.02297 -71.70197 27444 ft 492 kts 57°
2026-05-05 14:15 42.03523 -71.67633 27492 ft 493 kts 57°
2026-05-05 14:15 42.05379 -71.63751 27562 ft 493 kts 57°
2026-05-05 14:15 42.07247 -71.59803 27631 ft 494 kts 58°
2026-05-05 14:16 42.09062 -71.55945 27694 ft 494 kts 58°
2026-05-05 14:16 42.10930 -71.51988 27758 ft 495 kts 57°
2026-05-05 14:16 42.12757 -71.48126 27821 ft 496 kts 57°
2026-05-05 14:16 42.14634 -71.44147 27881 ft 496 kts 58°
2026-05-05 14:17 42.16454 -71.40272 27938 ft 497 kts 58°
2026-05-05 14:17 42.18304 -71.36331 27992 ft 497 kts 58°
2026-05-05 14:17 42.22031 -71.28389 28099 ft 498 kts 58°
2026-05-05 14:18 42.25731 -71.20473 28199 ft 499 kts 58°
2026-05-05 14:18 42.29436 -71.12533 28297 ft 500 kts 58°
2026-05-05 14:19 42.33143 -71.04565 28389 ft 501 kts 58°
2026-05-05 14:19 42.36627 -70.96414 28427 ft 501 kts 66°
2026-05-05 14:20 42.39377 -70.87738 28501 ft 502 kts 67°
2026-05-05 14:20 42.42209 -70.79096 28579 ft 503 kts 66°
2026-05-05 14:21 42.44999 -70.70442 28919 ft 497 kts 67°
2026-05-05 14:21 42.46362 -70.66182 29336 ft 489 kts 66°
2026-05-05 14:21 42.47720 -70.61997 29743 ft 482 kts 66°
2026-05-05 14:22 42.49056 -70.57867 30144 ft 475 kts 66°
2026-05-05 14:22 42.50359 -70.53797 30540 ft 468 kts 66°
2026-05-05 14:22 42.51641 -70.49782 30932 ft 461 kts 66°
2026-05-05 14:22 42.52909 -70.45821 31321 ft 455 kts 66°
2026-05-05 14:23 42.54161 -70.41914 31708 ft 448 kts 66°
2026-05-05 14:23 42.55389 -70.38070 32093 ft 442 kts 66°
2026-05-05 14:23 42.56602 -70.34255 32477 ft 436 kts 67°
2026-05-05 14:23 42.57779 -70.30557 32853 ft 430 kts 67°
2026-05-05 14:24 42.58954 -70.26863 33232 ft 424 kts 67°
2026-05-05 14:24 42.60112 -70.23214 33610 ft 418 kts 67°
2026-05-05 14:24 42.61249 -70.19626 33984 ft 411 kts 67°
2026-05-05 14:24 42.62371 -70.16081 34356 ft 405 kts 67°
2026-05-05 14:25 42.63475 -70.12587 34509 ft 404 kts 67°
2026-05-05 14:25 42.64592 -70.09051 34474 ft 409 kts 67°
2026-05-05 14:25 42.66850 -70.01883 34451 ft 417 kts 67°
2026-05-05 14:26 42.69143 -69.94584 34462 ft 423 kts 67°
2026-05-05 14:26 42.71463 -69.87178 34486 ft 429 kts 67°
2026-05-05 14:27 42.73809 -69.79671 34514 ft 434 kts 67°
2026-05-05 14:27 42.76178 -69.72065 34543 ft 439 kts 67°
2026-05-05 14:28 42.78569 -69.64369 34572 ft 444 kts 67°
2026-05-05 14:28 42.80980 -69.56586 34598 ft 448 kts 67°
2026-05-05 14:29 42.83406 -69.48727 34623 ft 452 kts 67°
2026-05-05 14:29 42.85851 -69.40788 34647 ft 456 kts 67°
2026-05-05 14:30 42.88309 -69.32777 34668 ft 460 kts 67°
2026-05-05 14:30 42.90782 -69.24695 34688 ft 463 kts 68°
2026-05-05 14:31 42.93269 -69.16542 34707 ft 467 kts 68°
2026-05-05 14:31 42.95765 -69.08332 34724 ft 470 kts 68°
2026-05-05 14:32 42.98272 -69.00063 34739 ft 473 kts 68°
2026-05-05 14:32 43.00786 -68.91741 34754 ft 475 kts 68°
2026-05-05 14:33 43.03309 -68.83364 34767 ft 478 kts 68°
2026-05-05 14:33 43.05838 -68.74939 34780 ft 480 kts 68°
2026-05-05 14:34 43.08374 -68.66464 34791 ft 482 kts 68°
2026-05-05 14:34 43.10914 -68.57947 34802 ft 485 kts 68°
2026-05-05 14:35 43.13459 -68.49382 34812 ft 487 kts 68°
2026-05-05 14:35 43.16007 -68.40781 34821 ft 488 kts 68°
2026-05-05 14:36 43.18559 -68.32138 34830 ft 490 kts 68°
2026-05-05 14:36 43.21111 -68.23463 34838 ft 492 kts 68°
2026-05-05 14:37 43.23667 -68.14747 34846 ft 494 kts 68°
2026-05-05 14:37 43.26225 -68.05995 34854 ft 495 kts 68°
2026-05-05 14:38 43.28785 -67.97203 34861 ft 497 kts 68°
2026-05-05 14:38 43.31345 -67.88380 34868 ft 498 kts 68°
2026-05-05 14:39 43.33906 -67.79525 34875 ft 500 kts 68°
2026-05-05 14:39 43.36467 -67.70635 34882 ft 501 kts 69°
2026-05-05 14:40 43.39028 -67.61717 34887 ft 502 kts 69°
2026-05-05 14:40 43.41588 -67.52772 34892 ft 503 kts 69°
2026-05-05 14:41 43.44145 -67.43804 34897 ft 504 kts 69°
2026-05-05 14:41 43.46700 -67.34810 34901 ft 505 kts 69°
2026-05-05 14:42 43.49250 -67.25799 34905 ft 506 kts 69°
2026-05-05 14:42 43.51799 -67.16762 34909 ft 506 kts 69°
2026-05-05 14:43 43.54345 -67.07700 34912 ft 507 kts 69°
2026-05-05 14:43 43.56948 -66.98659 34907 ft 507 kts 65°
2026-05-05 14:44 43.60034 -66.89916 34912 ft 508 kts 64°
2026-05-05 14:44 43.63088 -66.81123 34914 ft 508 kts 65°
2026-05-05 14:45 43.66145 -66.72311 34916 ft 509 kts 64°
2026-05-05 14:45 43.69206 -66.63483 34918 ft 510 kts 65°
2026-05-05 14:46 43.72235 -66.54682 34921 ft 511 kts 64°
2026-05-05 14:46 43.75289 -66.45813 34924 ft 511 kts 65°
2026-05-05 14:47 43.78332 -66.36922 34927 ft 512 kts 65°
2026-05-05 14:47 43.82575 -66.24498 34930 ft 513 kts 65°
2026-05-05 14:48 43.94701 -65.88649 34949 ft 515 kts 65°
2026-05-05 14:48 44.06770 -65.52492 34961 ft 517 kts 65°
2026-05-05 14:49 44.18763 -65.16066 34975 ft 518 kts 65°
2026-05-05 14:49 44.30674 -64.79388 34990 ft 519 kts 66°
2026-05-05 14:50 44.42487 -64.42502 35009 ft 520 kts 66°
2026-05-05 14:50 44.54186 -64.05447 35018 ft 520 kts 66°
2026-05-05 14:51 44.59978 -63.86903 35309 ft 512 kts 66°
2026-05-05 14:51 44.65477 -63.69176 36989 ft 474 kts 66°
2026-05-05 14:51 44.70442 -63.53061 38842 ft 433 kts 66°
2026-05-05 14:51 44.75192 -63.37550 38991 ft 433 kts 67°
2026-05-05 14:52 44.84745 -63.06069 39004 ft 441 kts 67°
2026-05-05 14:52 44.94370 -62.73949 39007 ft 448 kts 67°
2026-05-05 14:53 45.04051 -62.41223 39011 ft 454 kts 68°
2026-05-05 14:53 45.13767 -62.07946 39012 ft 460 kts 68°
2026-05-05 14:54 45.23495 -61.74170 39008 ft 465 kts 68°
2026-05-05 14:54 45.33228 -61.39913 39006 ft 470 kts 68°
2026-05-05 14:55 45.42900 -61.05383 39007 ft 473 kts 69°
2026-05-05 14:55 45.52568 -60.70373 39011 ft 475 kts 69°
2026-05-05 14:56 45.62173 -60.35076 39010 ft 478 kts 69°
2026-05-05 14:56 45.70098 -60.05557 39011 ft 480 kts 69°
2026-05-05 14:57 45.81094 -59.63976 39005 ft 481 kts 69°
2026-05-05 14:57 45.88958 -59.33782 39010 ft 482 kts 70°
2026-05-05 14:58 45.98246 -58.97605 39007 ft 484 kts 70°
2026-05-05 14:58 46.07459 -58.61149 39009 ft 484 kts 70°
2026-05-05 14:59 46.14178 -58.34192 39009 ft 485 kts 70°
2026-05-05 14:59 46.16430 -58.25083 39011 ft 485 kts 70°
2026-05-05 15:00 46.18689 -58.15909 39012 ft 485 kts 70°
2026-05-05 15:00 46.20953 -58.06679 39010 ft 486 kts 71°
2026-05-05 15:01 46.23188 -57.97528 39011 ft 486 kts 71°
2026-05-05 15:01 46.25442 -57.88263 39008 ft 486 kts 71°
2026-05-05 15:02 46.27661 -57.79099 39010 ft 486 kts 71°
2026-05-05 15:02 46.29889 -57.69867 39011 ft 486 kts 71°
2026-05-05 15:03 46.32108 -57.60628 39012 ft 486 kts 71°
2026-05-05 15:03 46.34322 -57.51377 39009 ft 487 kts 71°
2026-05-05 15:04 46.36542 -57.42058 39010 ft 487 kts 71°
2026-05-05 15:04 46.38742 -57.32783 39012 ft 487 kts 71°
2026-05-05 15:05 46.42030 -57.18853 39010 ft 487 kts 71°
2026-05-05 15:06 46.44211 -57.09559 39011 ft 487 kts 71°
2026-05-05 15:06 46.46387 -57.00251 39012 ft 487 kts 71°
2026-05-05 15:07 46.48541 -56.90996 39009 ft 488 kts 71°
2026-05-05 15:07 46.50703 -56.81668 39010 ft 488 kts 71°
2026-05-05 15:08 46.52857 -56.72334 39011 ft 488 kts 71°
2026-05-05 15:08 46.55004 -56.62988 39012 ft 488 kts 72°
2026-05-05 15:09 46.57146 -56.53627 39009 ft 488 kts 72°
2026-05-05 15:09 46.59279 -56.44264 39010 ft 488 kts 72°
2026-05-05 15:10 46.61406 -56.34885 39010 ft 488 kts 72°
2026-05-05 15:10 46.63524 -56.25503 39011 ft 488 kts 72°
2026-05-05 15:11 46.65634 -56.16114 39012 ft 488 kts 72°
2026-05-05 15:11 46.67736 -56.06725 39009 ft 488 kts 72°
2026-05-05 15:12 46.69836 -55.97299 39010 ft 489 kts 72°
2026-05-05 15:12 46.71926 -55.87876 39010 ft 489 kts 72°
2026-05-05 15:13 46.74007 -55.78454 39011 ft 489 kts 72°
2026-05-05 15:13 46.76082 -55.69012 39012 ft 489 kts 72°
2026-05-05 15:14 46.78150 -55.59563 39008 ft 489 kts 72°
2026-05-05 15:14 46.80208 -55.50116 39009 ft 489 kts 72°
2026-05-05 15:15 46.82260 -55.40652 39009 ft 489 kts 72°
2026-05-05 15:15 46.84304 -55.31187 39009 ft 489 kts 72°
2026-05-05 15:16 46.86339 -55.21716 39009 ft 489 kts 72°
2026-05-05 15:16 46.88366 -55.12237 39009 ft 489 kts 73°
2026-05-05 15:17 46.90386 -55.02747 39009 ft 489 kts 73°
2026-05-05 15:17 46.92398 -54.93253 39009 ft 489 kts 73°
2026-05-05 15:18 46.94403 -54.83752 39010 ft 489 kts 73°
2026-05-05 15:18 46.96399 -54.74246 39010 ft 489 kts 73°
2026-05-05 15:19 46.98386 -54.64736 39010 ft 489 kts 73°
2026-05-05 15:19 47.00366 -54.55215 39010 ft 489 kts 73°
2026-05-05 15:20 47.02339 -54.45685 39010 ft 489 kts 73°
2026-05-05 15:20 47.04303 -54.36149 39010 ft 489 kts 73°
2026-05-05 15:21 47.06259 -54.26611 39011 ft 489 kts 73°
2026-05-05 15:21 47.08207 -54.17062 39011 ft 489 kts 73°
2026-05-05 15:22 47.10148 -54.07504 39011 ft 489 kts 73°
2026-05-05 15:22 47.12081 -53.97940 39011 ft 489 kts 73°
2026-05-05 15:23 47.13994 -53.88429 39012 ft 489 kts 73°
2026-05-05 15:23 47.15911 -53.78850 39009 ft 489 kts 73°
2026-05-05 15:24 47.17822 -53.69257 39009 ft 489 kts 74°
2026-05-05 15:24 47.19736 -53.59599 39010 ft 489 kts 74°
2026-05-05 15:25 47.21631 -53.49990 39010 ft 489 kts 74°
2026-05-05 15:25 47.23518 -53.40373 39011 ft 489 kts 74°
2026-05-05 15:26 47.25396 -53.30755 39011 ft 489 kts 74°
2026-05-05 15:26 47.27255 -53.21188 39012 ft 489 kts 74°
2026-05-05 15:27 47.29117 -53.11552 39009 ft 489 kts 74°
2026-05-05 15:27 47.30973 -53.01906 39009 ft 489 kts 74°
2026-05-05 15:28 47.32820 -52.92255 39010 ft 489 kts 74°
2026-05-05 15:28 47.34659 -52.82595 39010 ft 489 kts 74°
2026-05-05 15:29 47.36489 -52.72932 39011 ft 489 kts 75°
2026-05-05 15:29 47.38313 -52.63251 39011 ft 489 kts 75°
2026-05-05 15:30 47.40127 -52.53574 39011 ft 489 kts 75°
2026-05-05 15:30 47.41935 -52.43883 39011 ft 489 kts 75°
2026-05-05 15:31 47.43732 -52.34196 39011 ft 489 kts 75°
2026-05-05 15:31 47.45523 -52.24492 39012 ft 489 kts 75°
2026-05-05 15:32 47.47305 -52.14785 39009 ft 490 kts 75°
2026-05-05 15:32 47.49080 -52.05065 39010 ft 490 kts 75°
2026-05-05 15:33 47.51133 -51.95478 39003 ft 489 kts 69°
2026-05-05 15:33 47.53641 -51.86131 39002 ft 489 kts 69°
2026-05-05 15:34 47.56040 -51.76710 39002 ft 489 kts 69°
2026-05-05 15:34 47.58485 -51.67308 39002 ft 489 kts 69°
2026-05-05 15:35 47.60900 -51.57882 39003 ft 489 kts 69°
2026-05-05 15:35 47.63315 -51.48449 39003 ft 490 kts 69°
2026-05-05 15:36 47.65722 -51.39008 39004 ft 490 kts 69°
2026-05-05 15:36 47.68120 -51.29551 39005 ft 490 kts 69°
2026-05-05 15:37 47.70514 -51.20084 39006 ft 490 kts 70°
2026-05-05 15:37 47.72899 -51.10603 39007 ft 490 kts 70°
2026-05-05 15:38 47.75278 -51.01116 39008 ft 490 kts 70°
2026-05-05 15:38 47.77649 -50.91613 39008 ft 490 kts 70°
2026-05-05 15:39 47.80012 -50.82106 39009 ft 490 kts 70°
2026-05-05 15:39 47.82368 -50.72583 39010 ft 490 kts 70°
2026-05-05 15:40 47.84716 -50.63055 39010 ft 491 kts 70°
2026-05-05 15:40 47.87058 -50.53509 39011 ft 491 kts 70°
2026-05-05 15:41 47.89391 -50.43961 39012 ft 491 kts 70°
2026-05-05 15:41 47.91326 -50.36009 39009 ft 491 kts 70°
2026-05-05 15:42 47.93645 -50.26441 39010 ft 491 kts 70°
2026-05-05 15:42 47.95958 -50.16860 39010 ft 491 kts 70°
2026-05-05 15:43 47.98263 -50.07263 39011 ft 491 kts 70°
2026-05-05 15:43 48.00605 -49.97688 39005 ft 491 kts 68°
2026-05-05 15:44 48.02986 -49.88147 39005 ft 490 kts 70°
2026-05-05 15:44 48.05382 -49.78600 39003 ft 491 kts 69°
2026-05-05 15:45 48.07776 -49.69048 39003 ft 491 kts 70°
2026-05-05 15:45 48.10147 -49.59477 39003 ft 491 kts 70°
2026-05-05 15:46 48.12526 -49.49904 39003 ft 491 kts 70°
2026-05-05 15:46 48.14887 -49.40309 39004 ft 491 kts 70°
2026-05-05 15:47 48.17248 -49.30711 39005 ft 491 kts 70°
2026-05-05 15:47 48.19595 -49.21103 39012 ft 491 kts 70°
2026-05-05 15:48 48.21935 -49.11489 39010 ft 491 kts 70°
2026-05-05 15:48 48.24271 -49.01857 39010 ft 491 kts 70°
2026-05-05 15:49 48.26596 -48.92222 39008 ft 491 kts 70°
2026-05-05 15:49 48.28915 -48.82574 39010 ft 491 kts 70°
2026-05-05 15:50 48.31226 -48.72911 39011 ft 491 kts 70°
2026-05-05 15:50 48.33514 -48.63306 39008 ft 492 kts 70°
2026-05-05 15:51 48.35808 -48.53629 39009 ft 492 kts 70°
2026-05-05 15:51 48.38097 -48.43936 39010 ft 492 kts 70°
2026-05-05 15:52 48.40376 -48.34237 39011 ft 492 kts 71°
2026-05-05 15:52 48.42648 -48.24528 39011 ft 492 kts 71°
2026-05-05 15:53 48.44912 -48.14808 39012 ft 492 kts 71°
2026-05-05 15:53 48.47168 -48.05079 39009 ft 492 kts 71°
2026-05-05 15:54 48.49416 -47.95338 39009 ft 492 kts 71°
2026-05-05 15:54 48.51657 -47.85588 39010 ft 492 kts 71°
2026-05-05 15:55 48.53889 -47.75831 39010 ft 492 kts 71°
2026-05-05 15:55 48.56112 -47.66065 39011 ft 492 kts 71°
2026-05-05 15:56 48.58329 -47.56286 39011 ft 492 kts 71°
2026-05-05 15:56 48.60536 -47.46499 39012 ft 492 kts 71°
2026-05-05 15:57 48.62738 -47.36697 39009 ft 492 kts 71°
2026-05-05 15:57 48.64929 -47.26892 39009 ft 492 kts 71°
2026-05-05 15:58 48.69125 -47.07992 39010 ft 492 kts 71°
2026-05-05 15:58 48.72163 -46.94197 39010 ft 492 kts 72°
2026-05-05 15:59 48.74320 -46.84350 39011 ft 492 kts 72°
2026-05-05 15:59 48.76453 -46.74564 39011 ft 492 kts 72°
2026-05-05 16:00 48.78605 -46.64640 39011 ft 492 kts 72°
2026-05-05 16:00 48.80722 -46.54835 39011 ft 492 kts 72°
2026-05-05 16:01 48.82845 -46.44952 39011 ft 492 kts 72°
2026-05-05 16:01 48.84973 -46.35001 39012 ft 492 kts 72°
2026-05-05 16:02 48.87065 -46.25171 39012 ft 492 kts 72°
2026-05-05 16:02 48.89162 -46.15269 39009 ft 493 kts 72°
2026-05-05 16:03 48.91251 -46.05355 39009 ft 493 kts 72°
2026-05-05 16:03 48.93332 -45.95431 39010 ft 493 kts 72°
2026-05-05 16:04 48.95403 -45.85504 39010 ft 493 kts 72°
2026-05-05 16:04 48.97467 -45.75565 39010 ft 493 kts 72°
2026-05-05 16:05 48.99522 -45.65615 39010 ft 493 kts 72°
2026-05-05 16:05 49.01568 -45.55661 39010 ft 493 kts 73°
2026-05-05 16:06 49.03606 -45.45697 39011 ft 493 kts 73°
2026-05-05 16:06 49.05636 -45.35722 39011 ft 493 kts 73°
2026-05-05 16:07 49.07657 -45.25741 39012 ft 493 kts 73°
2026-05-05 16:07 49.09670 -45.15751 39009 ft 493 kts 73°
2026-05-05 16:08 49.11675 -45.05749 39009 ft 493 kts 73°
2026-05-05 16:08 49.13670 -44.95739 39010 ft 493 kts 73°
2026-05-05 16:09 49.15658 -44.85722 39010 ft 493 kts 73°
2026-05-05 16:09 49.17638 -44.75688 39011 ft 493 kts 73°
2026-05-05 16:10 49.19608 -44.65654 39011 ft 493 kts 73°
2026-05-05 16:10 49.21570 -44.55605 39011 ft 493 kts 73°
2026-05-05 16:11 49.23524 -44.45551 39012 ft 493 kts 73°
2026-05-05 16:12 49.27405 -44.25414 39009 ft 493 kts 73°
2026-05-05 16:13 49.32207 -44.00204 39010 ft 493 kts 74°
2026-05-05 16:13 49.34111 -43.90109 39009 ft 493 kts 74°
2026-05-05 16:14 49.37894 -43.69895 39009 ft 493 kts 74°
2026-05-05 16:15 49.41640 -43.49661 39009 ft 493 kts 74°
2026-05-05 16:16 49.45351 -43.29393 39010 ft 493 kts 75°
2026-05-05 16:17 49.48113 -43.14160 39010 ft 493 kts 75°
2026-05-05 16:18 49.50854 -42.98917 39011 ft 493 kts 75°
2026-05-05 16:19 49.53564 -42.83720 39012 ft 493 kts 75°
2026-05-05 16:19 49.56266 -42.68437 39009 ft 493 kts 75°
2026-05-05 16:20 49.59838 -42.48028 39010 ft 493 kts 75°
2026-05-05 16:22 49.64253 -42.22467 39011 ft 493 kts 75°
2026-05-05 16:23 49.67747 -42.01977 39009 ft 494 kts 75°
2026-05-05 16:23 49.70344 -41.86585 39010 ft 494 kts 76°
2026-05-05 16:24 49.72063 -41.76322 39010 ft 494 kts 76°
2026-05-05 16:25 49.74626 -41.60904 39011 ft 494 kts 76°
2026-05-05 16:25 49.77169 -41.45471 39011 ft 494 kts 76°
2026-05-05 16:26 49.80526 -41.24873 39011 ft 493 kts 76°
2026-05-05 16:27 49.82190 -41.14564 39011 ft 493 kts 76°
2026-05-05 16:27 49.83845 -41.04254 39011 ft 493 kts 76°
2026-05-05 16:28 49.85214 -40.95674 39011 ft 493 kts 76°
2026-05-05 16:28 49.86853 -40.85348 39011 ft 493 kts 76°
2026-05-05 16:29 49.88482 -40.75012 39011 ft 494 kts 76°
2026-05-05 16:29 49.90102 -40.64670 39012 ft 494 kts 76°
2026-05-05 16:30 49.91714 -40.54317 39009 ft 494 kts 77°
2026-05-05 16:30 49.93316 -40.43961 39009 ft 494 kts 77°
2026-05-05 16:31 49.94909 -40.33597 39009 ft 494 kts 77°
2026-05-05 16:31 49.96493 -40.23223 39010 ft 494 kts 77°
2026-05-05 16:32 49.98068 -40.12840 39010 ft 494 kts 77°
2026-05-05 16:32 49.99634 -40.02451 39011 ft 494 kts 77°
2026-05-05 16:33 50.01881 -39.92399 39005 ft 493 kts 68°
2026-05-05 16:33 50.04436 -39.82515 39004 ft 493 kts 69°
2026-05-05 16:34 50.06881 -39.72559 39005 ft 493 kts 69°
2026-05-05 16:34 50.09373 -39.62684 39005 ft 493 kts 69°
2026-05-05 16:35 50.11828 -39.52721 39005 ft 493 kts 69°
2026-05-05 16:35 50.14301 -39.42750 39005 ft 493 kts 69°
2026-05-05 16:36 50.16752 -39.32768 39006 ft 493 kts 69°
2026-05-05 16:36 50.19200 -39.22775 39006 ft 493 kts 69°
2026-05-05 16:37 50.21639 -39.12768 39007 ft 493 kts 69°
2026-05-05 16:37 50.24069 -39.02749 39007 ft 493 kts 69°
2026-05-05 16:38 50.26491 -38.92722 39008 ft 493 kts 69°
2026-05-05 16:38 50.28905 -38.82679 39008 ft 493 kts 69°
2026-05-05 16:39 50.31295 -38.72697 39009 ft 493 kts 70°
2026-05-05 16:39 50.33691 -38.62636 39009 ft 493 kts 70°
2026-05-05 16:40 50.36081 -38.52558 39010 ft 494 kts 70°
2026-05-05 16:40 50.38461 -38.42471 39010 ft 494 kts 70°
2026-05-05 16:41 50.40832 -38.32377 39011 ft 494 kts 70°
2026-05-05 16:41 50.43196 -38.22268 39011 ft 494 kts 70°
2026-05-05 16:42 50.45551 -38.12148 39012 ft 494 kts 70°
2026-05-05 16:42 50.47897 -38.02019 39009 ft 494 kts 70°
2026-05-05 16:43 50.50236 -37.91873 39010 ft 494 kts 70°
2026-05-05 16:43 50.52566 -37.81716 39010 ft 494 kts 70°
2026-05-05 16:44 50.54887 -37.71551 39011 ft 494 kts 70°
2026-05-05 16:44 50.57198 -37.61378 39011 ft 494 kts 70°
2026-05-05 16:45 50.59503 -37.51189 39012 ft 494 kts 70°
2026-05-05 16:45 50.61798 -37.40988 39009 ft 494 kts 71°
2026-05-05 16:46 50.64084 -37.30781 39009 ft 494 kts 71°
2026-05-05 16:46 50.66362 -37.20558 39010 ft 494 kts 71°
2026-05-05 16:47 50.68631 -37.10325 39010 ft 494 kts 71°
2026-05-05 16:47 50.70891 -37.00087 39010 ft 494 kts 71°
2026-05-05 16:48 50.72958 -36.90676 39010 ft 494 kts 71°
2026-05-05 16:48 50.75216 -36.80343 39011 ft 494 kts 71°
2026-05-05 16:49 50.77451 -36.70067 39011 ft 494 kts 71°
2026-05-05 16:49 50.79675 -36.59791 39012 ft 494 kts 71°
2026-05-05 16:50 50.81892 -36.49495 39009 ft 495 kts 71°
2026-05-05 16:50 50.84099 -36.39192 39010 ft 495 kts 71°
2026-05-05 16:51 50.86298 -36.28875 39010 ft 495 kts 71°
2026-05-05 16:51 50.88488 -36.18550 39011 ft 495 kts 71°
2026-05-05 16:52 50.90669 -36.08214 39011 ft 495 kts 71°
2026-05-05 16:52 50.92842 -35.97863 39011 ft 495 kts 72°
2026-05-05 16:53 50.95004 -35.87509 39012 ft 495 kts 72°
2026-05-05 16:53 50.97144 -35.77209 39009 ft 495 kts 72°
2026-05-05 16:54 50.99289 -35.66830 39009 ft 495 kts 72°
2026-05-05 16:54 51.01426 -35.56435 39010 ft 495 kts 72°
2026-05-05 16:55 51.03554 -35.46035 39010 ft 495 kts 72°
2026-05-05 16:55 51.05671 -35.35629 39010 ft 495 kts 72°
2026-05-05 16:56 51.07781 -35.25203 39011 ft 495 kts 72°
2026-05-05 16:56 51.09880 -35.14775 39011 ft 495 kts 72°
2026-05-05 16:57 51.11970 -35.04338 39011 ft 495 kts 72°
2026-05-05 16:57 51.14052 -34.93884 39012 ft 495 kts 72°
2026-05-05 16:58 51.16124 -34.83424 39009 ft 495 kts 72°
2026-05-05 16:58 51.18187 -34.72954 39009 ft 495 kts 73°
2026-05-05 16:59 51.20242 -34.62468 39010 ft 495 kts 73°
2026-05-05 16:59 51.22286 -34.51982 39010 ft 495 kts 73°
2026-05-05 17:00 51.24321 -34.41481 39010 ft 495 kts 73°
2026-05-05 17:00 51.26348 -34.30967 39011 ft 495 kts 73°
2026-05-05 17:01 51.28364 -34.20448 39011 ft 495 kts 73°
2026-05-05 17:01 51.30372 -34.09915 39011 ft 495 kts 73°
2026-05-05 17:02 51.32369 -33.99379 39011 ft 495 kts 73°
2026-05-05 17:02 51.34358 -33.88831 39012 ft 495 kts 73°
2026-05-05 17:03 51.36338 -33.78269 39009 ft 496 kts 73°
2026-05-05 17:03 51.38307 -33.67701 39009 ft 495 kts 73°
2026-05-05 17:04 51.40267 -33.57125 39009 ft 495 kts 73°
2026-05-05 17:04 51.42216 -33.46548 39008 ft 495 kts 73°
2026-05-05 17:05 51.44156 -33.35957 39008 ft 495 kts 74°
2026-05-05 17:05 51.46085 -33.25368 39008 ft 495 kts 74°
2026-05-05 17:06 51.48005 -33.14767 39007 ft 495 kts 74°
2026-05-05 17:06 51.49915 -33.04162 39007 ft 495 kts 74°
2026-05-05 17:07 51.51814 -32.93552 39007 ft 495 kts 74°
2026-05-05 17:07 51.53704 -32.82929 39006 ft 495 kts 74°
2026-05-05 17:08 51.55584 -32.72301 39006 ft 494 kts 74°
2026-05-05 17:08 51.57454 -32.61665 39006 ft 494 kts 74°
2026-05-05 17:09 51.59313 -32.51031 39006 ft 494 kts 74°
2026-05-05 17:09 51.61164 -32.40377 39006 ft 494 kts 75°
2026-05-05 17:10 51.63004 -32.29721 39006 ft 494 kts 75°
2026-05-05 17:10 51.64834 -32.19061 39006 ft 494 kts 75°
2026-05-05 17:11 51.66657 -32.08380 39006 ft 494 kts 75°
2026-05-05 17:11 51.68468 -31.97698 39007 ft 494 kts 75°
2026-05-05 17:12 51.70259 -31.87070 39007 ft 495 kts 75°
2026-05-05 17:12 51.72053 -31.76363 39008 ft 495 kts 75°
2026-05-05 17:13 51.73836 -31.65649 39008 ft 495 kts 75°
2026-05-05 17:13 51.75323 -31.56663 39009 ft 495 kts 75°
2026-05-05 17:14 51.77090 -31.45926 39010 ft 495 kts 75°
2026-05-05 17:14 51.78846 -31.35185 39010 ft 495 kts 75°
2026-05-05 17:15 51.80594 -31.24425 39011 ft 495 kts 75°
2026-05-05 17:15 51.82332 -31.13661 39011 ft 495 kts 76°
2026-05-05 17:16 51.84060 -31.02886 39010 ft 495 kts 76°
2026-05-05 17:16 51.85779 -30.92095 39009 ft 495 kts 76°
2026-05-05 17:17 51.87489 -30.81298 39010 ft 495 kts 76°
2026-05-05 17:17 51.89176 -30.70569 39010 ft 495 kts 76°
2026-05-05 17:18 51.90866 -30.59755 39011 ft 495 kts 76°
2026-05-05 17:18 51.92546 -30.48931 39011 ft 496 kts 76°
2026-05-05 17:19 51.94216 -30.38099 39012 ft 496 kts 76°
2026-05-05 17:19 51.95878 -30.27249 39009 ft 496 kts 76°
2026-05-05 17:20 51.97529 -30.16395 39010 ft 496 kts 76°
2026-05-05 17:20 51.99169 -30.05544 39010 ft 496 kts 76°
2026-05-05 17:21 52.01236 -29.94895 39005 ft 495 kts 68°
2026-05-05 17:22 52.05201 -29.79416 39004 ft 495 kts 69°
2026-05-05 17:22 52.07766 -29.69042 39005 ft 495 kts 68°
2026-05-05 17:23 52.10368 -29.58680 39005 ft 495 kts 68°
2026-05-05 17:23 52.12928 -29.48281 39005 ft 495 kts 68°
2026-05-05 17:24 52.15501 -29.37883 39006 ft 495 kts 68°
2026-05-05 17:24 52.18053 -29.27460 39006 ft 495 kts 68°
2026-05-05 17:25 52.20602 -29.17036 39007 ft 495 kts 68°
2026-05-05 17:25 52.23141 -29.06584 39008 ft 495 kts 69°
2026-05-05 17:26 52.25671 -28.96128 39008 ft 496 kts 69°
2026-05-05 17:26 52.28192 -28.85657 39009 ft 496 kts 69°
2026-05-05 17:27 52.30704 -28.75168 39009 ft 496 kts 69°
2026-05-05 17:27 52.33207 -28.64675 39010 ft 496 kts 69°
2026-05-05 17:28 52.35701 -28.54163 39011 ft 496 kts 69°
2026-05-05 17:28 52.38188 -28.43630 39011 ft 496 kts 69°
2026-05-05 17:29 52.40662 -28.33097 39012 ft 496 kts 69°
2026-05-05 17:29 52.43132 -28.22536 39009 ft 496 kts 69°
2026-05-05 17:30 52.45591 -28.11967 39010 ft 496 kts 69°
2026-05-05 17:30 52.48038 -28.01396 39011 ft 496 kts 69°
2026-05-05 17:31 52.50481 -27.90791 39011 ft 496 kts 69°
2026-05-05 17:31 52.52913 -27.80183 39012 ft 496 kts 69°
2026-05-05 17:32 52.55335 -27.69563 39012 ft 496 kts 70°
2026-05-05 17:32 52.57745 -27.58939 39012 ft 496 kts 70°
2026-05-05 17:33 52.60147 -27.48302 39011 ft 496 kts 70°
2026-05-05 17:33 52.62540 -27.37650 39011 ft 496 kts 70°
2026-05-05 17:34 52.64922 -27.26990 39008 ft 496 kts 70°
2026-05-05 17:34 52.67297 -27.16309 39009 ft 496 kts 70°
2026-05-05 17:35 52.73818 -26.86697 39010 ft 496 kts 70°
2026-05-05 17:35 52.83106 -26.43766 39012 ft 497 kts 71°
2026-05-05 17:36 52.92250 -26.00601 39011 ft 497 kts 71°
2026-05-05 17:36 53.01247 -25.57206 39009 ft 497 kts 71°
2026-05-05 17:37 53.10084 -25.13638 39009 ft 497 kts 71°
2026-05-05 17:37 53.18750 -24.69947 39010 ft 497 kts 72°
2026-05-05 17:38 53.27264 -24.26038 39012 ft 497 kts 72°
2026-05-05 17:38 53.35621 -23.81931 39010 ft 497 kts 72°
2026-05-05 17:39 53.43812 -23.37668 39012 ft 498 kts 73°
2026-05-05 17:39 53.51848 -22.93184 39009 ft 498 kts 73°
2026-05-05 17:40 53.59716 -22.48538 39011 ft 498 kts 74°
2026-05-05 17:40 53.67416 -22.03741 39009 ft 498 kts 74°
2026-05-05 17:41 53.74959 -21.58718 39011 ft 498 kts 75°
2026-05-05 17:41 53.82336 -21.13510 39008 ft 498 kts 75°
2026-05-05 17:42 53.89537 -20.68182 39010 ft 498 kts 75°
2026-05-05 17:42 53.96572 -20.22667 39011 ft 498 kts 76°
2026-05-05 17:43 54.00374 -19.76362 39001 ft 497 kts 87°
2026-05-05 17:43 54.01249 -19.29447 39003 ft 497 kts 89°
2026-05-05 17:44 54.01869 -18.82438 39005 ft 497 kts 89°
2026-05-05 17:44 54.02291 -18.35732 39008 ft 497 kts 89°
2026-05-05 17:45 54.02534 -17.88669 39010 ft 498 kts 90°
2026-05-05 17:45 54.02592 -17.41246 39012 ft 498 kts 90°
2026-05-05 17:46 54.02466 -16.94122 39009 ft 498 kts 90°
2026-05-05 17:46 54.02158 -16.47318 39011 ft 498 kts 91°
2026-05-05 17:47 54.01664 -16.00191 39009 ft 498 kts 91°
2026-05-05 17:47 54.00986 -15.53054 39010 ft 498 kts 92°
2026-05-05 17:48 54.00123 -15.05922 39011 ft 499 kts 92°
2026-05-05 17:48 54.00039 -14.94007 39004 ft 498 kts 89°
2026-05-05 17:49 54.00056 -14.82235 39002 ft 498 kts 90°
2026-05-05 17:49 54.00090 -14.70467 39001 ft 498 kts 90°
2026-05-05 17:50 54.00103 -14.58695 39001 ft 498 kts 90°
2026-05-05 17:50 54.00104 -14.46916 39001 ft 498 kts 90°
2026-05-05 17:51 54.00097 -14.35144 39001 ft 498 kts 90°
2026-05-05 17:51 54.00075 -14.23369 39001 ft 498 kts 90°
2026-05-05 17:52 54.00045 -14.11584 39002 ft 498 kts 90°
2026-05-05 17:52 53.99785 -13.99835 38983 ft 497 kts 100°
2026-05-05 17:53 53.97758 -13.88646 39006 ft 496 kts 111°
2026-05-05 17:53 53.93642 -13.68455 39008 ft 496 kts 109°
2026-05-05 17:54 53.84491 -13.24342 39012 ft 496 kts 109°
2026-05-05 17:54 53.75202 -12.80378 39011 ft 497 kts 110°
2026-05-05 17:55 53.65807 -12.36845 39010 ft 497 kts 110°
2026-05-05 17:55 53.51713 -11.73211 38910 ft 499 kts 111°
2026-05-05 17:56 53.31951 -10.87120 39038 ft 491 kts 111°
2026-05-05 17:56 53.11747 -10.02540 39095 ft 488 kts 112°
2026-05-05 17:57 52.91012 -9.19014 38993 ft 489 kts 113°
2026-05-05 17:57 52.69771 -8.36574 38927 ft 490 kts 114°
2026-05-05 17:58 52.47929 -7.54822 39016 ft 487 kts 114°
2026-05-05 17:58 52.29237 -6.87088 38982 ft 489 kts 115°
2026-05-05 17:59 52.06394 -6.06887 38858 ft 491 kts 115°
2026-05-05 17:59 51.83805 -5.27593 39012 ft 486 kts 115°
2026-05-05 18:00 51.62155 -4.47767 39102 ft 483 kts 114°
2026-05-05 18:00 51.52291 -4.07506 39027 ft 483 kts 101°
2026-05-05 18:00 51.48543 -3.66929 39029 ft 482 kts 104°
2026-05-05 18:01 51.46081 -3.31943 39010 ft 485 kts 95°
2026-05-05 18:01 51.45511 -3.21041 38131 ft 505 kts 96°
2026-05-05 18:01 51.44763 -3.09675 36595 ft 516 kts 96°
2026-05-05 18:01 51.44082 -2.98192 35014 ft 519 kts 96°
2026-05-05 18:02 51.43535 -2.89651 33764 ft 520 kts 96°
2026-05-05 18:02 51.43345 -2.86760 33323 ft 524 kts 96°
2026-05-05 18:02 51.43153 -2.83800 32878 ft 531 kts 96°
2026-05-05 18:02 51.42967 -2.80874 32421 ft 536 kts 96°
2026-05-05 18:03 51.42703 -2.76680 31759 ft 529 kts 96°
2026-05-05 18:03 51.42333 -2.70868 30857 ft 518 kts 96°
2026-05-05 18:03 51.41960 -2.65181 29989 ft 508 kts 96°
2026-05-05 18:03 51.41590 -2.59610 29145 ft 499 kts 96°
2026-05-05 18:04 51.41228 -2.54136 28319 ft 490 kts 96°
2026-05-05 18:04 51.40873 -2.48762 27511 ft 481 kts 96°
2026-05-05 18:04 51.40518 -2.43474 26719 ft 474 kts 96°
2026-05-05 18:04 51.40164 -2.38263 25942 ft 468 kts 96°
2026-05-05 18:05 51.39813 -2.33104 25175 ft 463 kts 96°
2026-05-05 18:05 51.39465 -2.28011 24421 ft 459 kts 96°
2026-05-05 18:05 51.39117 -2.22960 23672 ft 452 kts 96°
2026-05-05 18:05 51.38769 -2.17942 22927 ft 443 kts 96°
2026-05-05 18:06 51.38434 -2.13150 22218 ft 436 kts 97°
2026-05-05 18:06 51.38207 -2.09904 21741 ft 432 kts 97°
2026-05-05 18:06 51.37758 -2.03542 20809 ft 428 kts 97°
2026-05-05 18:06 51.37428 -1.98895 20129 ft 425 kts 97°
2026-05-05 18:07 51.37095 -1.94233 19444 ft 417 kts 97°
2026-05-05 18:07 51.36770 -1.89710 18766 ft 392 kts 97°
2026-05-05 18:07 51.36467 -1.85516 18143 ft 375 kts 97°
2026-05-05 18:07 51.36167 -1.81399 17540 ft 370 kts 97°
2026-05-05 18:08 51.35872 -1.77349 16950 ft 364 kts 97°
2026-05-05 18:08 51.35579 -1.73356 16372 ft 358 kts 97°
2026-05-05 18:08 51.35291 -1.69433 15805 ft 353 kts 97°
2026-05-05 18:08 51.35003 -1.65552 15247 ft 350 kts 97°
2026-05-05 18:09 51.34716 -1.61689 14699 ft 349 kts 97°
2026-05-05 18:09 51.34430 -1.57857 14288 ft 345 kts 97°
2026-05-05 18:09 51.34152 -1.54143 14046 ft 323 kts 97°
2026-05-05 18:09 51.33878 -1.50507 14007 ft 329 kts 97°
2026-05-05 18:10 51.33606 -1.46921 13404 ft 326 kts 97°
2026-05-05 18:10 51.33331 -1.43302 12828 ft 325 kts 97°
2026-05-05 18:10 51.33062 -1.39766 12626 ft 319 kts 97°
2026-05-05 18:10 51.32790 -1.36221 12419 ft 323 kts 97°
2026-05-05 18:11 51.32515 -1.32646 12202 ft 324 kts 97°
2026-05-05 18:11 51.32240 -1.29076 11975 ft 323 kts 97°
2026-05-05 18:11 51.31964 -1.25515 11742 ft 322 kts 97°
2026-05-05 18:11 51.31687 -1.21964 11505 ft 321 kts 97°
2026-05-05 18:12 51.31411 -1.18433 11265 ft 320 kts 97°
2026-05-05 18:12 51.31300 -1.14899 11009 ft 317 kts 89°
2026-05-05 18:12 51.31288 -1.11378 10770 ft 317 kts 91°
2026-05-05 18:12 51.31228 -1.07864 10530 ft 316 kts 92°
2026-05-05 18:13 51.31185 -1.04363 10332 ft 310 kts 91°
2026-05-05 18:13 51.31156 -1.00986 10255 ft 304 kts 91°
2026-05-05 18:13 51.31126 -0.97611 10094 ft 298 kts 91°
2026-05-05 18:13 51.31095 -0.94351 9942 ft 291 kts 91°
2026-05-05 18:14 51.31062 -0.91067 9766 ft 298 kts 91°
2026-05-05 18:14 51.31028 -0.87790 9537 ft 291 kts 91°
2026-05-05 18:14 51.30995 -0.84585 9392 ft 293 kts 91°
2026-05-05 18:14 51.30959 -0.81288 9116 ft 295 kts 91°
2026-05-05 18:15 51.30924 -0.78031 9011 ft 292 kts 91°
2026-05-05 18:15 51.30888 -0.74822 8921 ft 282 kts 91°
2026-05-05 18:15 51.30853 -0.71769 8731 ft 269 kts 91°
2026-05-05 18:15 51.30818 -0.68825 8427 ft 261 kts 91°
2026-05-05 18:16 51.30791 -0.65989 8168 ft 257 kts 90°
2026-05-05 18:16 51.30759 -0.63152 8044 ft 254 kts 92°
2026-05-05 18:16 51.30712 -0.60340 8016 ft 253 kts 92°
2026-05-05 18:16 51.30674 -0.57514 8009 ft 255 kts 91°
2026-05-05 18:17 51.30640 -0.54679 8014 ft 255 kts 91°
2026-05-05 18:17 51.30604 -0.51844 8008 ft 255 kts 91°
2026-05-05 18:17 51.30565 -0.49005 8008 ft 256 kts 91°
2026-05-05 18:17 51.30602 -0.46174 7966 ft 257 kts 82°
2026-05-05 18:18 51.31441 -0.43703 7912 ft 256 kts 46°
2026-05-05 18:18 51.33003 -0.42432 7888 ft 256 kts 11°
2026-05-05 18:18 51.34739 -0.42800 7870 ft 254 kts 336°
2026-05-05 18:18 51.36025 -0.44665 7859 ft 253 kts 301°
2026-05-05 18:19 51.36590 -0.47293 7943 ft 250 kts 283°
2026-05-05 18:19 51.36989 -0.50080 8021 ft 267 kts 283°
2026-05-05 18:19 51.37408 -0.52880 8009 ft 256 kts 283°
2026-05-05 18:19 51.37827 -0.55649 8013 ft 255 kts 283°
2026-05-05 18:20 51.38073 -0.58439 7992 ft 253 kts 272°
2026-05-05 18:20 51.38106 -0.61250 8002 ft 253 kts 270°
2026-05-05 18:20 51.38114 -0.64061 8007 ft 252 kts 270°
2026-05-05 18:20 51.38121 -0.66941 8030 ft 272 kts 270°
2026-05-05 18:21 51.38128 -0.69939 7875 ft 265 kts 270°
2026-05-05 18:21 51.38131 -0.72836 7745 ft 255 kts 270°
2026-05-05 18:21 51.38136 -0.75591 7247 ft 244 kts 270°
2026-05-05 18:21 51.38140 -0.78314 6713 ft 246 kts 270°
2026-05-05 18:22 51.38153 -0.81051 6463 ft 241 kts 271°
2026-05-05 18:22 51.38685 -0.83491 6451 ft 230 kts 306°
2026-05-05 18:22 51.39945 -0.84824 6245 ft 215 kts 342°
2026-05-05 18:22 51.41411 -0.84970 5889 ft 208 kts
2026-05-05 18:23 51.42833 -0.84918 5574 ft 202 kts
2026-05-05 18:23 51.44227 -0.84826 5245 ft 199 kts
2026-05-05 18:23 51.45441 -0.83800 4744 ft 202 kts 44°
2026-05-05 18:23 51.46204 -0.81963 4356 ft 198 kts 68°
2026-05-05 18:24 51.46518 -0.79811 4029 ft 198 kts 80°
2026-05-05 18:24 51.46801 -0.77698 3595 ft 192 kts 79°
2026-05-05 18:24 51.47005 -0.75595 3253 ft 190 kts 80°
2026-05-05 18:24 51.47257 -0.73514 3092 ft 192 kts 79°
2026-05-05 18:25 51.47611 -0.71404 2850 ft 196 kts 78°
2026-05-05 18:25 51.47675 -0.69975 2681 ft 192 kts 89°
2026-05-05 18:25 51.47685 -0.67226 2358 ft 177 kts 90°
2026-05-05 18:25 51.47693 -0.65294 2125 ft 171 kts 90°
2026-05-05 18:26 51.47699 -0.63404 1901 ft 168 kts 90°
2026-05-05 18:26 51.47706 -0.61535 1686 ft 166 kts 90°
2026-05-05 18:26 51.47713 -0.59680 1467 ft 167 kts 90°
2026-05-05 18:26 51.47720 -0.57840 1245 ft 160 kts 90°
2026-05-05 18:27 51.47721 -0.56098 1037 ft 155 kts 90°
2026-05-05 18:27 51.47726 -0.54945 903 ft 154 kts 90°
2026-05-05 18:27 51.47734 -0.53231 689 ft 153 kts 90°
2026-05-05 18:27 51.47738 -0.51523 492 ft 153 kts 91°
2026-05-05 18:28 51.47749 -0.48114 109 ft 152 kts 90°
2026-05-05 18:28 51.47757 -0.46553 95 ft 124 kts 89°
2026-05-05 18:28 51.47761 -0.45395 91 ft 85 kts 90°
2026-05-05 18:29 51.47764 -0.44751 94 ft 41 kts 90°
2026-05-05 18:29 51.47704 -0.44402 92 ft 24 kts 115°
2026-05-05 18:29 51.47651 -0.44249 92 ft 4 kts 145°
2026-05-05 18:29 51.47650 -0.44248 92 ft 0 kts 146°
2026-05-05 18:30 51.47648 -0.44246 92 ft 0 kts 148°
2026-05-05 18:30 51.47637 -0.44238 92 ft 4 kts 154°
2026-05-05 18:31 51.47602 -0.44194 92 ft 7 kts 119°
2026-05-05 18:31 51.47592 -0.44112 92 ft 8 kts 103°
2026-05-05 18:31 51.47560 -0.44068 92 ft 6 kts 163°
2026-05-05 18:31 51.47511 -0.44061 92 ft 10 kts 179°
2026-05-05 18:32 51.47437 -0.44060 92 ft 11 kts 179°
2026-05-05 18:32 51.47362 -0.44059 92 ft 10 kts 179°
2026-05-05 18:32 51.47297 -0.44059 92 ft 1 kts 186°
2026-05-05 18:32 51.47286 -0.44072 92 ft 3 kts 218°
2026-05-05 18:33 51.47271 -0.44110 92 ft 4 kts 251°
2026-05-05 18:33 51.47268 -0.44159 92 ft 4 kts 268°
2026-05-05 18:33 51.47267 -0.44189 92 ft 2 kts 269°
2026-05-05 18:33 51.47267 -0.44199 92 ft 0 kts 269°